Weather in Chernolesskoye

Russia / Stavropol Krai     44°43′05″N   43°42′27″E
temp.,
°C
wind,
m/s
gust,
m/s
humid.,
%
clouds,
%
prec.,
mm/h
press.,
hPa
HPBL,
m
9 may, sun
sun900:00+12se377531 0.0 1011139
03:00+10ese3480100 0.0 101062
06:00+12wnw2479100 0.0 1010138
09:00+17nnw696997 0.0 1009736
12:00+19nw7764100 0.1 10091416
15:00+13wnw101486100 0.7 1012864
18:00+8wnw111790100 2.3 1015958
21:00+8wnw81488100 9.8 10191072
10 may, mon
mon1000:00+8wnw81482100 0.1 1020922
03:00+7wnw81579100 0.1 1021777
06:00+6w613814 0.0 1021740
09:00+11wnw913545 0.0 10211800
12:00+14wnw10134383 0.0 10192633
15:00+14wnw10124636 0.0 10182334
18:00+11wnw711645 0.0 10191355
21:00+7wsw3779100 0.0 1020132
11 may, tue
tue1100:00+7ssw487658 0.0 1020288
03:00+6ssw478085 0.0 1019142
06:00+7s2376100 0.0 101993
09:00+12ese3454100 0.0 1019835
12:00+13ese7952100 0.0 10181803
15:00+12e5768100 0.0 1018790
18:00+12nne3573100 0.0 1018193
21:00+12e4964100 0.0 1018260
12 may, wed
wed1200:00+8ese377621 0.0 1018117
03:00+6se228621 0.0 101813
06:00+8e128244 0.0 101879
09:00+14ese34685 0.0 1018873
12:00+19ese445432 0.0 10171471
15:00+20ese445028 0.0 10161640
18:00+19ese34630 0.0 1016136
21:00+14se22755 0.0 101613
13 may, thu
thu1300:00+12ese34790 0.0 101644
03:00+11se22870 0.0 101612
06:00+12ese23820 0.0 1016109
09:00+19ese46624 0.0 1016642
12:00+23ese55535 0.0 10151059
15:00+25ese554817 0.0 10141228
18:00+22ese36610 0.0 1015142
21:00+17ese346985 0.0 101540